Location: ??
(35.5672°N, 139.6509°E)
Time: 12:24:02
(UTC+00:00)

Meteor 1-21 - Pass Details

Date: 03 August 2024
Orbit: 845 x 885 km, 81.2° (Epoch: 08 September)

Event Time Altitude Azimuth Distance (km) Brightness Sun altitude
Rises 16:48:17 0° 353° (N) 3,410 8.0 -29.9°
Reaches altitude 10° 16:50:43 10° 356° (N) 2,472 7.2 -29.7°
Maximum altitude 16:56:18 73° 81° (E) 886 4.3 -29.0°
Enters shadow 16:56:26 72° 93° (E) 888 4.2 -29.0°
